TimeCAT,TemperatureF,Dew PointF,Humidity,Sea Level PressureIn,VisibilityMPH,Wind Direction,Wind SpeedMPH,Gust SpeedMPH,PrecipitationIn,Events,Conditions,WindDirDegrees,DateUTC
12:00 AM,71.6,64.4,78,30.04,6.2,ENE,11.5,-,N/A,,Mostly Cloudy,70,2013-01-06 22:00:00
1:00 AM,69.8,64.4,83,30.01,6.2,East,6.9,-,N/A,,Mostly Cloudy,80,2013-01-06 23:00:00
3:00 AM,68.0,62.6,83,30.01,6.2,East,3.5,-,N/A,,Mostly Cloudy,90,2013-01-07 01:00:00
4:00 AM,68.0,62.6,83,29.98,6.2,SE,3.5,-,N/A,,Mostly Cloudy,130,2013-01-07 02:00:00
5:00 AM,66.2,66.2,100,30.01,6.2,SSE,5.8,-,N/A,,Partly Cloudy,160,2013-01-07 03:00:00
6:00 AM,68.0,66.2,94,30.04,6.2,SE,5.8,-,N/A,Rain,Light Rain,130,2013-01-07 04:00:00
8:00 AM,73.4,68.0,83,30.06,6.2,East,12.7,-,N/A,,Mostly Cloudy,80,2013-01-07 06:00:00
9:00 AM,75.2,66.2,73,30.06,6.2,ENE,10.4,-,N/A,,Mostly Cloudy,70,2013-01-07 07:00:00
11:00 AM,80.6,68.0,65,30.06,6.2,East,11.5,-,N/A,,Scattered Clouds,100,2013-01-07 09:00:00
12:00 PM,82.4,68.0,62,30.04,6.2,ENE,12.7,-,N/A,,Mostly Cloudy,70,2013-01-07 10:00:00
1:00 PM,84.2,66.2,55,30.04,6.2,East,12.7,-,N/A,,Mostly Cloudy,80,2013-01-07 11:00:00
2:00 PM,86.0,66.2,51,30.01,6.2,East,13.8,-,N/A,,Partly Cloudy,80,2013-01-07 12:00:00
3:00 PM,87.8,66.2,49,29.98,6.2,East,9.2,-,N/A,,Partly Cloudy,90,2013-01-07 13:00:00
4:00 PM,84.2,66.2,55,29.95,6.2,East,10.4,-,N/A,,Partly Cloudy,90,2013-01-07 14:00:00
5:00 PM,86.0,66.2,51,29.95,6.2,SE,10.4,-,N/A,,Partly Cloudy,130,2013-01-07 15:00:00
6:00 PM,86.0,66.2,51,29.98,6.2,East,15.0,-,N/A,,Partly Cloudy,90,2013-01-07 16:00:00
8:00 PM,82.4,64.4,54,30.04,6.2,East,12.7,-,N/A,,Partly Cloudy,90,2013-01-07 18:00:00
9:00 PM,80.6,62.6,54,30.06,6.2,East,8.1,-,N/A,,Partly Cloudy,90,2013-01-07 19:00:00
10:00 PM,78.8,64.4,61,30.09,6.2,East,11.5,-,N/A,,Partly Cloudy,90,2013-01-07 20:00:00
11:00 PM,77.0,64.4,65,30.09,-9999.0,East,10.4,-,N/A,,Clear,80,2013-01-07 21:00:00